Flag for India Weather past 2 weeks in Vasai-Virar, Maharashtra, India

Now
82 °F

Clear.


Feels Like: 80 °F
Forecast: 73 / 93 °F
Wind: 5 mph from Northwest

Location: Bombay / Santacruz

Current Time: Apr 1, 2015 at 12:37:12 AM

Latest Report: Mar 31, 2015 at 11:40 PM


Visibility: 2 mi

Pressure: 29.86 "Hg

Humidity: 19%

Dew point: 36 °F

Location of Vasai-VirarLocation

Historic Weather in Vasai-Virar — Graph

°F

Vasai-Virar temperature yesterday

Maximum temperature yesterday: 95 °F (at 1:40 PM)
Minimum temperature yesterday: 81 °F (at 4:40 AM)
Average temperature yesterday: 87 °F

Past Weeks' High & Low Weather Summary

 TemperatureHumidityPressure
High104 °F (Mar 25, 1:40 PM)94% (Mar 22, 2:40 AM)30.04 "Hg (Mar 22, 2:40 AM)
Low73 °F (Mar 17, 2:40 AM)10% (Mar 31, 2:40 PM)29.71 "Hg (Mar 25, 3:40 PM)
Average86 °F59%29.85 "Hg
* Reported Mar 16 10:40 PM — Mar 31 10:40 PM, Vasai-Virar, Weather by CustomWeather, © 2015

Note: Actual official high and low records may vary slightly from our data, if they occured in-between our weather recording intervals... More about our weather records

Advertising

Vasai-Virar weather history for previous 24 hours

 ConditionsComfort  
Time TempWeatherWind HumidityBarometerVisibility
10:40 PM
Tue, Mar 31
84 °FClear.5 mph18%29.86 "Hg2 mi
9:40 PM84 °FClear.No wind18%29.86 "Hg2 mi
8:40 PM84 °FClear.No wind19%29.86 "Hg2 mi
6:40 PM90 °FPassing clouds.8 mph16%29.83 "Hg4 mi
5:40 PM93 °FPassing clouds.8 mph15%29.80 "Hg4 mi
4:40 PM95 °FPassing clouds.12 mph15%29.80 "Hg4 mi
3:40 PM91 °FPassing clouds.9 mph11%29.80 "Hg4 mi
2:40 PM91 °FClear.12 mph10%29.83 "Hg4 mi
1:40 PM95 °FClear.12 mph16%29.86 "Hg3 mi
11:40 AM93 °FClear.6 mph53%29.89 "Hg2 mi
10:40 AM91 °FClear.10 mph56%29.92 "Hg2 mi
9:40 AM90 °FClear.5 mph52%29.92 "Hg2 mi
8:40 AM86 °FClear.6 mph55%29.89 "Hg2 mi
6:40 AM81 °FHaze.3 mph79%29.86 "Hg2 mi
5:40 AM81 °FHaze.3 mph79%29.83 "Hg2 mi
4:40 AM81 °FHaze.5 mph79%29.80 "Hg2 mi
3:40 AM82 °FHaze.5 mph74%29.80 "Hg2 mi
2:40 AM82 °FHaze.No wind66%29.80 "Hg2 mi
1:40 AM82 °FHaze.3 mph70%29.80 "Hg2 mi
12:40 AM84 °FHaze.No wind62%29.83 "Hg2 mi
Weather by CustomWeather, © 2015

See weather overviewHow to use our weather pages